When you browse on this site, cookies collect data to enhance your experience and personalize the content and advertising you see.
Visit our Privacy Policy to learn more. By continuing to use the site, you agree to this use of cookies and data.

Hourly Weather Blagoevgrad

Today, 2 July, Thursday

Time Temperature Precipitation Wind Pressure Humidity
00:00 +22°C° 0 mm 1 mps 719 mmHg 66%
01:00 +22°C° 0 mm 1 mps 719 mmHg 68%
02:00 +21°C° 0 mm 1 mps 719 mmHg 70%
03:00 +21°C° 0 mm 1 mps 719 mmHg 71%
04:00 +21°C° 0 mm 1 mps 718 mmHg 72%
05:00 +18°C° 0 mm 0 mps 718 mmHg 74%
06:00 +20°C° 0 mm 0 mps 718 mmHg 69%
07:00 +23°C° 0 mm 0 mps 719 mmHg 65%
08:00 +25°C° 0 mm 0 mps 719 mmHg 61%
09:00 +28°C° 0 mm 1 mps 719 mmHg 58%
10:00 +30°C° 0 mm 1 mps 719 mmHg 55%
11:00 +31°C° 0 mm 1 mps 719 mmHg 52%
12:00 +32°C° 0.1 mm 1 mps 719 mmHg 50%
13:00 +32°C° 0.1 mm 1 mps 719 mmHg 49%
14:00 +33°C° 0.1 mm 1 mps 719 mmHg 48%
15:00 +33°C° 0.3 mm 1 mps 718 mmHg 49%
16:00 +30°C° 0.3 mm 0 mps 718 mmHg 50%
17:00 +30°C° 0.3 mm 0 mps 718 mmHg 52%
18:00 +28°C° 0.1 mm 0 mps 717 mmHg 58%
19:00 +28°C° 0.1 mm 1 mps 717 mmHg 64%
20:00 +26°C° 0.1 mm 1 mps 717 mmHg 70%
21:00 +25°C° 0.1 mm 1 mps 717 mmHg 72%
22:00 +24°C° 0.1 mm 1 mps 717 mmHg 75%
23:00 +24°C° 0.1 mm 1 mps 718 mmHg 77%

Tomorrow, 3 July, Friday

Time Temperature Precipitation Wind Pressure Humidity
00:00 +23°C° 0.1 mm 1 mps 717 mmHg 79%
01:00 +23°C° 0.1 mm 1 mps 717 mmHg 81%
02:00 +22°C° 0.1 mm 1 mps 717 mmHg 82%
03:00 +22°C° 0.4 mm 1 mps 717 mmHg 83%
04:00 +22°C° 0.4 mm 1 mps 717 mmHg 85%
05:00 +19°C° 0.4 mm 0 mps 717 mmHg 86%
06:00 +21°C° 0.3 mm 0 mps 717 mmHg 83%
07:00 +23°C° 0.3 mm 0 mps 717 mmHg 80%
08:00 +24°C° 0.3 mm 0 mps 718 mmHg 76%
09:00 +26°C° 0.6 mm 0 mps 718 mmHg 72%
10:00 +29°C° 0.6 mm 1 mps 718 mmHg 68%
11:00 +30°C° 0.6 mm 1 mps 718 mmHg 64%
12:00 +31°C° 0.9 mm 1 mps 718 mmHg 62%
13:00 +31°C° 0.9 mm 1 mps 718 mmHg 59%
14:00 +32°C° 0.9 mm 1 mps 717 mmHg 57%
15:00 +31°C° 0.9 mm 1 mps 717 mmHg 59%
16:00 +31°C° 0.9 mm 1 mps 717 mmHg 60%
17:00 +31°C° 0.9 mm 1 mps 717 mmHg 62%
18:00 +29°C° 0.6 mm 1 mps 717 mmHg 68%
19:00 +27°C° 0.6 mm 1 mps 717 mmHg 74%
20:00 +25°C° 0.6 mm 1 mps 717 mmHg 81%
21:00 +24°C° 0.5 mm 1 mps 718 mmHg 82%
22:00 +23°C° 0.5 mm 1 mps 718 mmHg 83%
23:00 +22°C° 0.5 mm 1 mps 718 mmHg 85%

Day after tomorrow, 4 July, Saturday

Time Temperature Precipitation Wind Pressure Humidity
00:00 +22°C° 0.1 mm 1 mps 718 mmHg 85%
01:00 +21°C° 0.1 mm 1 mps 718 mmHg 86%
02:00 +21°C° 0.1 mm 1 mps 718 mmHg 87%
03:00 +21°C° 0 mm 1 mps 718 mmHg 88%
04:00 +20°C° 0 mm 1 mps 718 mmHg 88%
05:00 +20°C° 0 mm 1 mps 718 mmHg 89%
06:00 +22°C° 0.1 mm 1 mps 719 mmHg 86%
07:00 +23°C° 0.1 mm 1 mps 719 mmHg 84%
08:00 +25°C° 0.1 mm 1 mps 719 mmHg 82%
09:00 +26°C° 0.6 mm 2 mps 719 mmHg 78%
10:00 +27°C° 0.6 mm 2 mps 719 mmHg 74%
11:00 +28°C° 0.6 mm 2 mps 719 mmHg 70%
12:00 +29°C° 1.5 mm 2 mps 719 mmHg 68%
13:00 +29°C° 1.5 mm 1 mps 719 mmHg 65%
14:00 +30°C° 1.5 mm 1 mps 719 mmHg 62%
15:00 +30°C° 0.9 mm 1 mps 718 mmHg 63%
16:00 +29°C° 0.9 mm 2 mps 718 mmHg 64%
17:00 +29°C° 0.9 mm 2 mps 718 mmHg 65%
18:00 +27°C° 0.7 mm 1 mps 718 mmHg 71%
19:00 +25°C° 0.7 mm 1 mps 718 mmHg 77%
20:00 +24°C° 0.7 mm 1 mps 718 mmHg 83%
21:00 +23°C° 0.2 mm 1 mps 718 mmHg 84%
22:00 +23°C° 0.2 mm 1 mps 718 mmHg 85%
23:00 +22°C° 0.2 mm 1 mps 718 mmHg 86%

5 July, Sunday

Time Temperature Precipitation Wind Pressure Humidity
00:00 +22°C° 0.3 mm 1 mps 718 mmHg 87%
01:00 +22°C° 0.3 mm 1 mps 718 mmHg 87%
02:00 +22°C° 0.3 mm 1 mps 718 mmHg 88%
03:00 +21°C° 0.1 mm 1 mps 718 mmHg 89%
04:00 +21°C° 0.1 mm 1 mps 718 mmHg 91%
05:00 +21°C° 0.1 mm 1 mps 718 mmHg 92%
06:00 +22°C° 0.4 mm 1 mps 718 mmHg 90%
07:00 +23°C° 0.4 mm 2 mps 718 mmHg 89%
08:00 +24°C° 0.4 mm 2 mps 718 mmHg 88%
09:00 +25°C° 1.1 mm 2 mps 718 mmHg 84%
10:00 +26°C° 1.1 mm 2 mps 718 mmHg 80%
11:00 +27°C° 1.1 mm 3 mps 718 mmHg 77%
12:00 +27°C° 1.4 mm 3 mps 718 mmHg 74%
13:00 +28°C° 1.4 mm 2 mps 718 mmHg 71%
14:00 +28°C° 1.4 mm 2 mps 718 mmHg 68%
15:00 +28°C° 1.6 mm 2 mps 718 mmHg 71%
16:00 +27°C° 1.6 mm 2 mps 717 mmHg 75%
17:00 +26°C° 1.6 mm 2 mps 717 mmHg 78%
18:00 +25°C° 0.6 mm 2 mps 717 mmHg 81%
19:00 +24°C° 0.6 mm 2 mps 717 mmHg 85%
20:00 +23°C° 0.6 mm 2 mps 717 mmHg 89%
21:00 +21°C° 0 mm 2 mps 718 mmHg 89%
22:00 +20°C° 0 mm 2 mps 718 mmHg 90%
23:00 +20°C° 0 mm 2 mps 718 mmHg 90%

6 July, Monday

Time Temperature Precipitation Wind Pressure Humidity
00:00 +20°C° 0 mm 2 mps 718 mmHg 91%
01:00 +19°C° 0 mm 2 mps 718 mmHg 91%
02:00 +19°C° 0 mm 2 mps 718 mmHg 92%
03:00 +19°C° 0 mm 2 mps 718 mmHg 92%
04:00 +19°C° 0 mm 2 mps 718 mmHg 92%
05:00 +18°C° 0 mm 2 mps 717 mmHg 92%
06:00 +20°C° 0 mm 2 mps 718 mmHg 89%
07:00 +21°C° 0 mm 2 mps 718 mmHg 85%
08:00 +24°C° 0 mm 2 mps 718 mmHg 82%
09:00 +26°C° 0 mm 2 mps 718 mmHg 75%
10:00 +27°C° 0 mm 2 mps 719 mmHg 68%
11:00 +29°C° 0 mm 2 mps 719 mmHg 61%
12:00 +30°C° 0 mm 3 mps 718 mmHg 58%
13:00 +31°C° 0 mm 3 mps 718 mmHg 55%
14:00 +33°C° 0 mm 3 mps 718 mmHg 52%
15:00 +31°C° 0.2 mm 3 mps 717 mmHg 54%
16:00 +31°C° 0.2 mm 3 mps 717 mmHg 55%
17:00 +31°C° 0.2 mm 3 mps 717 mmHg 57%
18:00 +29°C° 0.2 mm 2 mps 717 mmHg 65%
19:00 +27°C° 0.2 mm 2 mps 717 mmHg 73%
20:00 +25°C° 0.2 mm 2 mps 716 mmHg 81%
21:00 +24°C° 0.1 mm 2 mps 717 mmHg 83%
22:00 +23°C° 0.1 mm 2 mps 717 mmHg 85%
23:00 +21°C° 0.1 mm 2 mps 717 mmHg 87%

7 July, Tuesday

Time Temperature Precipitation Wind Pressure Humidity
00:00 +21°C° 0 mm 2 mps 717 mmHg 88%
01:00 +21°C° 0 mm 2 mps 717 mmHg 88%
02:00 +21°C° 0 mm 1 mps 716 mmHg 89%
03:00 +21°C° 0 mm 1 mps 716 mmHg 89%
04:00 +21°C° 0 mm 1 mps 716 mmHg 89%
05:00 +20°C° 0 mm 1 mps 716 mmHg 89%
06:00 +22°C° 0 mm 1 mps 716 mmHg 84%
07:00 +24°C° 0 mm 1 mps 716 mmHg 80%
08:00 +25°C° 0 mm 1 mps 716 mmHg 75%
09:00 +27°C° 0 mm 1 mps 716 mmHg 69%
10:00 +28°C° 0 mm 1 mps 716 mmHg 63%
11:00 +30°C° 0 mm 2 mps 716 mmHg 57%
12:00 +31°C° 0.2 mm 2 mps 716 mmHg 55%
13:00 +31°C° 0.2 mm 2 mps 716 mmHg 53%
14:00 +32°C° 0.2 mm 2 mps 716 mmHg 51%
15:00 +32°C° 0.4 mm 2 mps 715 mmHg 54%
16:00 +31°C° 0.4 mm 2 mps 715 mmHg 57%
17:00 +31°C° 0.4 mm 2 mps 715 mmHg 59%
18:00 +29°C° 0.4 mm 2 mps 715 mmHg 65%
19:00 +27°C° 0.4 mm 2 mps 715 mmHg 72%
20:00 +25°C° 0.4 mm 2 mps 715 mmHg 78%
21:00 +25°C° 0.5 mm 1 mps 715 mmHg 79%
22:00 +24°C° 0.5 mm 1 mps 715 mmHg 80%
23:00 +23°C° 0.5 mm 1 mps 715 mmHg 81%
Show more